Location: Iesi
(43.5167°N, 13.2333°E)
Time: 02:22:11
(UTC+00:00)

Cosmos 1934 Rocket - Pass Details

Date: 08 August 2020
Orbit: 937 x 1000 km, 83.0° (Epoch: 27 September)

Event Time Altitude Azimuth Distance (km) Brightness Sun altitude
Exits shadow 19:31:50 - 160° (SSE) 2,810 5.9 -12.1°
Reaches altitude 10° 19:32:00 10° 159° (SSE) 2,755 5.9 -12.2°
Maximum altitude 19:37:57 45° 89° (E) 1,344 4.4 -13.0°
Drops below altitude 10° 19:43:57 10° 20° (NNE) 2,779 6.6 -13.9°
Sets 19:46:35 0° 14° (NNE) 3,730 7.4 -14.3°
